ECHOSTAR 15             
1 36792U 10034A   19266.42690583 -.00000292  00000-0  00000+0 0  9999
2 36792   0.0189 202.5134 0001775 332.4683 279.0457  1.00269490 33745
BREEZE-M R/B            
1 36793U 10034B   19266.02511595 -.00000186  00000-0  00000+0 0  9993
2 36793  18.9605  88.3738 5567618 171.7972 218.2107  2.04330998 68696
BREEZE-M DEB [TANK]     
1 36794U 10034C   19264.07608941  .00001828  00000-0  25167-3 0  9997
2 36794  49.4251 137.0465 5546631 105.0399 320.0816  4.75191327156886